RADUGA 5 [-]

Last updated on Aug. 12, 2020, 5:32 a.m. UTC

1 11343U 79035A   20224.70148304 -.00000176  00000-0  00000-0 0  9998
2 11343  10.4283 307.4962 0004773 134.4324 216.4672  1.00265193107930
UTC
Height (km)
Latitude
Longitude
Inclination
Orbital Period
UTC large
Height (km)
Speed (km/s)
/
Latitude / Longitude
Inclination (degrees)
Orbital Period (minutes)
Azimuth
Elevation
Range (km)
Doppler Factor
iOS Compass Heading
iOS Angle

Next 30 passes for location: Hong Kong

Rise time Rise Azimuth (degrees) Set time Set Azimuth (degrees) Duration Max altitude (degrees)

No matching passes for this satellites